Regional Weather Roundup
Issued by NWS

Home | Current Version | Previous Version | Text Only | Print | Product List | Glossary On
Versions: 1 2 3 4 5 6 7 8 9 10 11 12 13 14 15 16 17 18 19 20 21 22 23 24 25 26 27 28 29 30 31 32 33 34 35 36 37 38 39 40 41 42 43 44 45 46 47 48 49 50
000
ASCA44 KEWX 260420
RWRMX

LATIN AMERICA AND CARIBBEAN REGIONAL WEATHER ROUNDUP
NATIONAL WEATHER SERVICE AUSTIN/SAN ANTONIO TX
1100 PM CDT MON MAY 25 2015

NOTE: "FAIR" INDICATED FEW OR NO CLOUDS BELOW 12,000 FEET WITH NO
SIGNIFICANT WEATHER AND/OR OBSTRUCTIONS TO VISIBILITY.

BAJA CALIFORNIA

CITY           SKY/WX    TMP DP  RH WIND       PRES   REMARKS
LA PAZ         CLEAR     75  55  50 NW7       29.90S
MEXICALI       PTCLDY    75  48  38 SE14      29.82R
S.J. DEL CABO  CLEAR     75  64  69 CALM      29.91R
TIJUANA        CLOUDY    59  52  77 W6        30.00S

NORTHWESTERN MEXICO

CITY           SKY/WX    TMP DP  RH WIND       PRES   REMARKS
CULIACAN       CLEAR     81  55  41 CALM      29.87R
HERMOSILLO     CLEAR     79  43  27 S5        29.93R
CD. JUAREZ       N/A    N/A N/A N/A MISG        N/A
LOS MOCHIS     CLEAR     73  48  40 N3        29.87R
OBREGON          N/A    N/A N/A N/A MISG        N/A

NORTHEASTERN MEXICO

CITY           SKY/WX    TMP DP  RH WIND       PRES   REMARKS
CHIHUAHUA      CLEAR     73  19  13 W9        30.01R
MONCLOVA         N/A    N/A N/A N/A MISG        N/A
MONTERREY      CLEAR     79  75  89 NE6       29.82R
NUEVO LAREDO   CLEAR     84  77  79 SE9       29.80R HX  94
PIEDRAS NEGRAS CLEAR     81  68  65 SE7       29.82R
REYNOSA        CLOUDY    79  73  83 SE12      29.84R
SALTILLO         N/A    N/A N/A N/A MISG        N/A
TORREON        CLEAR     81  39  22 CALM      29.93R

WESTERN MEXICO

CITY           SKY/WX    TMP DP  RH WIND       PRES   REMARKS
AGUASCALIENTES CLEAR     68  36  30 E3        30.17R
DEL BAJIO      PTCLDY    72  54  53 CALM      30.23R
GUADALAJARA    PTCLDY    75  52  43 W18       30.13R
MAZATLAN       CLEAR     73  63  68 W8        29.85R
P. VALLARTA    PTCLDY    81  73  78 CALM      29.86R
ZACATECAS      CLEAR     64  28  25 SW6       30.22R

CENTRAL MEXICO

CITY           SKY/WX    TMP DP  RH WIND       PRES   REMARKS
MEXICO CITY    CLOUDY    59  52  77 SW6       30.36F
PUEBLA         CLOUDY    59  54  82 NW6       30.34S
QUERETARO      MOCLDY    70  54  56 E12       30.26R
S. LUIS POTOSI PTCLDY    68  50  52 CALM      30.14R
TAMPICO        PTCLDY    81  77  89 SE12      29.86R
TOLUCA         MOCLDY    55  46  71 E8        30.41R

SOUTHERN MEXICO

CITY           SKY/WX    TMP DP  RH WIND       PRES   REMARKS
ACAPULCO       MOCLDY    84  77  79 CALM      29.90R HX  94
OAXACA         MOCLDY    68  57  68 SE3       30.24R
VERACRUZ       PTCLDY    79  73  83 W2        29.88R
ZIHUATANEJO      N/A    N/A N/A N/A MISG        N/A

YUCATAN PENINSULA

CITY           SKY/WX    TMP DP  RH WIND       PRES   REMARKS
CAMPECHE       CLEAR     88  66  48 SE12G23   29.90R HX  90
CANCUN         PTCLDY    82  75  78 E10       30.03R
COZUMEL        PTCLDY    77  75  94 CALM      30.02R
MERIDA         CLEAR     86  66  51 SE14      29.96R
TAPACHULA      MOCLDY    82  79  89 CALM      29.93R HX  93
TUX. GUTIERREZ CLOUDY    75  68  78 S5        29.99R
VILLAHERMOSA   MOCLDY    79  72  78 CALM      29.92R

CENTRAL AMERICA

CITY           SKY/WX    TMP DP  RH WIND       PRES   REMARKS
MANAGUA        PTCLDY    82  72  69 E12       29.89R

CARIBBEAN

CITY           SKY/WX    TMP DP  RH WIND       PRES   REMARKS
ARUBA          PTCLDY    81  73  78 E17       29.94S
CURACAO        PTCLDY    81  73  78 E10       29.97S
KINGSTON       PTCLDY    82  73  74 N6        30.00S
NASSAU         PTCLDY    79  72  78 E10       30.18S
SAN JUAN       PTCLDY    79  73  83 E7        30.05F
SANTO DOMINGO  PTCLDY    75  72  88 NE7       30.03S
ST. CROIX      CLOUDY    73  72  94 N7        30.05F FOG
ST. THOMAS     MOCLDY    79  72  78 NE9       30.04

$$




USA.gov is the U.S. government's official web portal to all federal, state and local government web resources and services.